TimeCDT,TemperatureF,Dew PointF,Humidity,Sea Level PressureIn,VisibilityMPH,Wind Direction,Wind SpeedMPH,Gust SpeedMPH,PrecipitationIn,Events,Conditions,WindDirDegrees,DateUTC
12:15 AM,46.4,42.3,85,30.27,10.0,NNW,3.5,-,N/A,,Overcast,340,2012-10-07 05:15:00
12:35 AM,46.4,42.3,85,30.28,10.0,NNW,5.8,-,N/A,,Overcast,340,2012-10-07 05:35:00
12:55 AM,46.6,41.9,84,30.28,10.0,North,4.6,-,N/A,,Overcast,350,2012-10-07 05:55:00
1:15 AM,46.6,42.1,84,30.28,10.0,NNW,5.8,-,N/A,,Overcast,340,2012-10-07 06:15:00
1:35 AM,46.6,41.4,82,30.28,10.0,North,6.9,-,N/A,,Overcast,10,2012-10-07 06:35:00
1:55 AM,46.4,39.7,78,30.27,10.0,NNE,5.8,-,N/A,,Overcast,30,2012-10-07 06:55:00
2:15 AM,46.4,39.4,77,30.28,10.0,North,6.9,-,N/A,,Overcast,10,2012-10-07 07:15:00
2:35 AM,46.4,39.2,76,30.27,10.0,NNE,5.8,-,N/A,,Overcast,20,2012-10-07 07:35:00
2:55 AM,46.4,39.2,76,30.28,10.0,North,5.8,-,N/A,,Overcast,10,2012-10-07 07:55:00
3:15 AM,46.4,39.2,76,30.27,10.0,NNE,5.8,-,N/A,,Overcast,20,2012-10-07 08:15:00
3:35 AM,46.0,39.4,78,30.27,10.0,North,4.6,-,N/A,,Overcast,10,2012-10-07 08:35:00
3:55 AM,46.0,39.7,79,30.27,10.0,North,3.5,-,N/A,,Overcast,10,2012-10-07 08:55:00
4:15 AM,46.0,40.1,80,30.27,10.0,North,5.8,-,N/A,,Overcast,360,2012-10-07 09:15:00
4:35 AM,46.0,39.2,77,30.27,10.0,North,8.1,-,N/A,,Overcast,10,2012-10-07 09:35:00
4:55 AM,46.0,37.6,72,30.28,10.0,North,9.2,-,N/A,,Overcast,10,2012-10-07 09:55:00
5:15 AM,45.9,36.9,71,30.26,10.0,NE,5.8,-,N/A,,Overcast,40,2012-10-07 10:15:00
5:35 AM,45.5,36.5,71,30.27,10.0,North,4.6,-,N/A,,Overcast,10,2012-10-07 10:35:00
5:55 AM,45.0,36.0,71,30.28,10.0,NNE,5.8,-,N/A,,Overcast,20,2012-10-07 10:55:00
6:15 AM,43.9,35.6,73,30.28,10.0,NNE,4.6,-,N/A,,Scattered Clouds,20,2012-10-07 11:15:00
6:55 AM,42.8,34.9,74,30.27,10.0,NNE,3.5,-,N/A,,Clear,20,2012-10-07 11:55:00
7:15 AM,41.4,35.4,79,30.29,10.0,NNW,4.6,-,N/A,,Clear,340,2012-10-07 12:15:00
7:35 AM,41.2,35.1,79,30.29,10.0,North,4.6,-,N/A,,Clear,350,2012-10-07 12:35:00
7:55 AM,41.4,35.2,79,30.29,10.0,North,3.5,-,N/A,,Clear,350,2012-10-07 12:55:00
8:15 AM,43.7,35.2,72,30.28,10.0,North,5.8,-,N/A,,Clear,10,2012-10-07 13:15:00
8:55 AM,46.0,34.5,64,30.28,10.0,NNE,6.9,-,N/A,,Clear,30,2012-10-07 13:55:00
9:15 AM,46.4,33.6,61,30.29,10.0,NNE,6.9,-,N/A,,Clear,30,2012-10-07 14:15:00
9:35 AM,48.7,32.4,53,30.29,10.0,NNE,4.6,-,N/A,,Clear,30,2012-10-07 14:35:00
9:55 AM,48.6,32.2,53,30.29,10.0,NNE,3.5,-,N/A,,Mostly Cloudy,30,2012-10-07 14:55:00
10:15 AM,48.6,32.7,54,30.29,10.0,NE,4.6,-,N/A,Rain,Light Rain,50,2012-10-07 15:15:00
10:35 AM,48.6,32.2,53,30.29,10.0,NE,3.5,-,N/A,,Overcast,40,2012-10-07 15:35:00
10:55 AM,49.6,32.7,52,30.30,10.0,NNE,4.6,-,N/A,,Overcast,20,2012-10-07 15:55:00
11:15 AM,49.6,34.0,55,30.30,10.0,NNW,4.6,-,N/A,,Scattered Clouds,330,2012-10-07 16:15:00
11:35 AM,50.5,33.6,52,30.30,10.0,NNW,4.6,-,N/A,,Clear,340,2012-10-07 16:35:00
11:55 AM,50.2,33.1,52,30.30,10.0,Calm,Calm,-,N/A,,Scattered Clouds,0,2012-10-07 16:55:00
12:15 PM,50.7,35.1,55,30.29,10.0,NE,3.5,-,N/A,,Mostly Cloudy,40,2012-10-07 17:15:00
12:35 PM,51.6,34.5,52,30.28,10.0,Calm,Calm,-,N/A,,Scattered Clouds,0,2012-10-07 17:35:00
12:55 PM,52.2,34.0,50,30.27,10.0,Calm,Calm,-,N/A,,Mostly Cloudy,0,2012-10-07 17:55:00
1:15 PM,52.7,33.6,48,30.26,10.0,NE,3.5,-,N/A,Rain,Light Rain,40,2012-10-07 18:15:00
1:35 PM,52.5,33.4,48,30.25,10.0,Calm,Calm,-,N/A,,Overcast,0,2012-10-07 18:35:00
1:55 PM,52.9,35.6,52,30.24,10.0,North,4.6,-,N/A,,Overcast,360,2012-10-07 18:55:00
2:15 PM,52.2,35.4,53,30.24,10.0,NNW,4.6,-,N/A,,Overcast,330,2012-10-07 19:15:00
2:35 PM,51.8,35.4,54,30.22,10.0,Calm,Calm,-,N/A,,Light Drizzle,0,2012-10-07 19:35:00
2:55 PM,52.3,34.2,50,30.22,10.0,Calm,Calm,-,N/A,,Overcast,0,2012-10-07 19:55:00
3:15 PM,52.5,34.3,50,30.21,10.0,Calm,Calm,-,N/A,,Overcast,0,2012-10-07 20:15:00
3:35 PM,52.7,34.5,50,30.22,10.0,Calm,Calm,-,N/A,,Overcast,0,2012-10-07 20:35:00
3:55 PM,52.9,33.4,48,30.21,10.0,Calm,Calm,-,N/A,,Overcast,0,2012-10-07 20:55:00
4:15 PM,53.1,32.4,45,30.21,10.0,Calm,Calm,-,N/A,,Overcast,0,2012-10-07 21:15:00
4:35 PM,53.1,33.4,47,30.21,10.0,Calm,Calm,-,N/A,,Overcast,0,2012-10-07 21:35:00
4:55 PM,53.1,33.1,47,30.20,10.0,WNW,3.5,-,N/A,,Overcast,290,2012-10-07 21:55:00
5:15 PM,52.7,34.0,49,30.19,10.0,Calm,Calm,-,N/A,,Overcast,0,2012-10-07 22:15:00
5:35 PM,52.7,34.2,49,30.19,10.0,Calm,Calm,-,N/A,,Overcast,0,2012-10-07 22:35:00
5:55 PM,52.7,34.9,51,30.19,10.0,Calm,Calm,-,N/A,,Overcast,0,2012-10-07 22:55:00
6:15 PM,52.3,34.5,51,30.20,10.0,West,3.5,-,N/A,,Overcast,270,2012-10-07 23:15:00
6:35 PM,52.0,34.5,51,30.20,10.0,West,3.5,-,N/A,,Overcast,270,2012-10-07 23:35:00
7:15 PM,51.3,36.0,56,30.19,10.0,WNW,3.5,-,N/A,,Overcast,300,2012-10-08 00:15:00
7:55 PM,51.1,37.8,60,30.20,10.0,WNW,3.5,-,N/A,,Overcast,290,2012-10-08 00:55:00
8:15 PM,51.1,37.8,60,30.20,10.0,Calm,Calm,-,N/A,,Overcast,0,2012-10-08 01:15:00
8:35 PM,50.9,38.1,62,30.21,10.0,West,3.5,-,N/A,,Overcast,280,2012-10-08 01:35:00
8:55 PM,50.9,37.9,61,30.21,10.0,WNW,3.5,-,N/A,,Overcast,300,2012-10-08 01:55:00
9:15 PM,50.9,37.6,60,30.21,10.0,WNW,3.5,-,N/A,,Overcast,290,2012-10-08 02:15:00
9:35 PM,50.5,39.0,65,30.21,10.0,WNW,4.6,-,N/A,,Overcast,300,2012-10-08 02:35:00
9:55 PM,50.9,36.9,59,30.23,10.0,WNW,5.8,-,N/A,,Overcast,300,2012-10-08 02:55:00
10:15 PM,50.9,34.9,54,30.23,10.0,NW,6.9,-,N/A,,Overcast,320,2012-10-08 03:15:00
10:35 PM,50.9,36.9,59,30.23,10.0,NNW,4.6,-,N/A,,Overcast,340,2012-10-08 03:35:00
10:55 PM,50.4,38.1,63,30.22,10.0,North,3.5,-,N/A,,Overcast,10,2012-10-08 03:55:00
11:15 PM,50.0,38.7,65,30.23,10.0,North,4.6,-,N/A,,Overcast,10,2012-10-08 04:15:00
11:35 PM,49.6,38.7,66,30.22,10.0,North,3.5,-,N/A,,Overcast,10,2012-10-08 04:35:00
11:55 PM,48.7,38.5,68,30.22,10.0,NNE,3.5,-,N/A,,Overcast,20,2012-10-08 04:55:00